Location: ?????????
(53.2086°N, 54.0693°E)
Time: 16:27:26
(UTC+00:00)

SKYMED 2 - Pass Details

Date: 08 December 2019
Orbit: 621 x 623 km, 97.9° (Epoch: 27 January)

Event Time Altitude Azimuth Distance (km) Brightness Sun altitude
Exits shadow 14:27:32 46° 56° (ENE) 850 3.8 -19.8°
Maximum altitude 14:28:27 55° 101° (E) 752 3.6 -19.9°
Drops below altitude 10° 14:32:42 10° 179° (S) 1,991 6.3 -20.5°
Sets 14:34:55 0° 184° (S) 2,893 7.2 -20.9°
